{"data":{"norad_id":54251,"intl_designator":"2022-155A","name":"JILIN-1 GAOFEN 03D08","alt_names":[],"object_type":"PAYLOAD","status":"ACTIVE","operator":null,"country":"PRC","launch_date":"2022-11-16","launch_site_code":"JSC","launch_vehicle":null,"mission":null,"orbit_class":"UNKNOWN","rcs_meters":null,"size_class":null,"mass_kg":null,"dimensions":null,"purposes":[],"wikipedia_slug":null,"has_3d_model":false,"image_url":null,"decayed_at":null,"tle_current":{"epoch":"2026-05-25T04:22:33.230784Z","epoch_age_seconds":53229,"freshness":"FRESH","line1":"1 54251U 22155A   26145.18232906  .00048900  00000+0  56312-3 0  9991","line2":"2 54251  97.6169 288.7892 0004121  88.1873 271.9856 15.61833226196229","mean_motion":15.61833226,"eccentricity":0.0004121,"inclination_deg":97.6169,"raan_deg":288.7892,"arg_perigee_deg":88.1873,"mean_anomaly_deg":271.9856,"bstar":0.00056312,"rev_number":19622,"period_min":92.199344720561,"perigee_km":379.5757390751,"apogee_km":385.14774213711,"semimajor_km":6760.4987406061,"source":"CELESTRAK","updated_at":"2026-05-25T13:37:58.664895Z"}}}